Location: Unspecified
(0.0000°N, 0.0000°E)
Time: 08:36:53
(UTC+00:00)

CUTE-I - Pass Details

Date: 14 December 2019
Orbit: 810 x 825 km, 98.7° (Epoch: 24 January)

Event Time Altitude Azimuth Distance (km) Brightness Sun altitude
Rises 18:25:30 0° 181° (S) 3,348 ? -7.1°
Reaches altitude 10° 18:27:58 10° 188° (S) 2,416 ? -7.6°
Maximum altitude 18:32:58 41° 257° (WSW) 1,170 ? -8.8°
Drops below altitude 10° 18:37:58 10° 327° (NNW) 2,414 ? -9.9°
Sets 18:40:26 0° 334° (NNW) 3,346 ? -10.5°
